TimeEST,TemperatureF,Dew PointF,Humidity,Sea Level PressureIn,VisibilityMPH,Wind Direction,Wind SpeedMPH,Gust SpeedMPH,PrecipitationIn,Events,Conditions,WindDirDegrees,DateUTC
12:53 AM,39.9,37.9,93,30.31,8.0,Calm,Calm,-,N/A,,Clear,0,2012-11-17 05:53:00
1:53 AM,39.9,37.9,93,30.30,7.0,North,3.5,-,N/A,,Clear,350,2012-11-17 06:53:00
2:53 AM,41.0,39.0,93,30.29,6.0,North,3.5,-,N/A,,Clear,10,2012-11-17 07:53:00
3:53 AM,41.0,39.9,96,30.30,6.0,North,3.5,-,N/A,,Clear,360,2012-11-17 08:53:00
4:53 AM,41.0,39.9,96,30.30,6.0,North,3.5,-,N/A,,Clear,360,2012-11-17 09:53:00
5:53 AM,41.0,39.9,96,30.31,8.0,NNE,4.6,-,N/A,,Clear,20,2012-11-17 10:53:00
7:53 AM,43.0,39.9,89,30.35,8.0,NNE,6.9,-,N/A,,Clear,20,2012-11-17 12:53:00
8:53 AM,46.9,39.9,77,30.36,9.0,NE,6.9,-,N/A,,Clear,40,2012-11-17 13:53:00
9:53 AM,52.0,39.0,61,30.37,10.0,NE,16.1,21.9,N/A,,Clear,50,2012-11-17 14:53:00
10:53 AM,55.9,37.9,51,30.37,10.0,ENE,12.7,18.4,N/A,,Clear,60,2012-11-17 15:53:00
11:53 AM,59.0,37.0,44,30.35,10.0,NE,11.5,-,N/A,,Scattered Clouds,40,2012-11-17 16:53:00
12:53 PM,60.1,37.0,42,30.32,10.0,NNE,9.2,-,N/A,,Scattered Clouds,20,2012-11-17 17:53:00
1:53 PM,62.1,37.0,39,30.29,10.0,NE,10.4,19.6,N/A,,Partly Cloudy,40,2012-11-17 18:53:00
2:53 PM,64.0,37.0,37,30.28,10.0,NNE,8.1,16.1,N/A,,Overcast,30,2012-11-17 19:53:00
3:53 PM,62.1,36.0,38,30.28,10.0,NNE,11.5,-,N/A,,Overcast,20,2012-11-17 20:53:00
4:53 PM,61.0,35.1,38,30.29,10.0,NE,10.4,16.1,N/A,,Mostly Cloudy,40,2012-11-17 21:53:00
5:53 PM,59.0,33.1,38,30.31,10.0,NNE,5.8,-,N/A,,Overcast,30,2012-11-17 22:53:00
6:53 PM,54.0,34.0,47,30.32,10.0,ENE,5.8,-,N/A,,Scattered Clouds,70,2012-11-17 23:53:00
7:53 PM,55.9,35.1,45,30.33,10.0,NNE,4.6,-,N/A,,Mostly Cloudy,20,2012-11-18 00:53:00
8:53 PM,55.9,35.1,45,30.35,10.0,ENE,8.1,-,N/A,,Overcast,60,2012-11-18 01:53:00
9:53 PM,54.0,33.1,45,30.35,10.0,ENE,12.7,-,N/A,,Mostly Cloudy,60,2012-11-18 02:53:00
10:53 PM,51.1,33.1,50,30.35,10.0,ENE,9.2,-,N/A,,Mostly Cloudy,60,2012-11-18 03:53:00
11:53 PM,50.0,32.0,50,30.33,10.0,NE,6.9,-,N/A,,Mostly Cloudy,40,2012-11-18 04:53:00